Terminal Aerodrome Forecast
Issued by NWS Tuscon, AZ

Home | Current Version | Previous Version | Text Only | Print | Product List | Glossary On
Versions: 1 2 3 4 5 6 7 8 9 10 11 12 13 14 15 16 17 18 19 20 21 22 23 24
000
FTUS45 KTWC 011000 AAA
TAFDUG
TAF AMD
KDUG 011033Z 0111/0206 VRB03KT 3SM BR SCT010 BKN030
      TEMPO 0111/0114 1/2SM FG BKN010
     FM011600 VRB04KT P6SM BKN030
     FM011900 35005KT P6SM SCT030
     FM020100 VRB04KT P6SM FEW030=

USA.gov is the U.S. government's official web portal to all federal, state and local government web resources and services.